Printer-friendly version

IAU Minor Planet Center

Minor Planet Center

MPEC 2006-U96 : 2006 SH7

The following Minor Planet Electronic Circular may be linked-to from your own Web pages, but must not otherwise be redistributed electronically.


Read MPEC 2006-U95 Read MPEC 2006-U97


M.P.E.C. 2006-U96                                Issued 2006 Oct. 31, 14:13 UT

     The Minor Planet Electronic Circulars contain information on unusual
         minor planets and routine data on comets.  They are published
   on behalf of Commission 20 of the International Astronomical Union by the
          Minor Planet Center, Smithsonian Astrophysical Observatory,
                          Cambridge, MA 02138, U.S.A.

             Prepared using the Tamkin Foundation Computer Network

                              MPC@CFA.HARVARD.EDU
          URL http://cfa-www.harvard.edu/iau/mpc.html  ISSN 1523-6714

                                   2006 SH7

                           Revision to MPEC 2006-S24

Additional Observations:
     K06S07H  C2002 08 19.46828 23 12 50.91 -16 32 22.1                 EU096644
     K06S07H  C2002 08 19.48919 23 12 50.11 -16 32 35.4                 EU096644
     K06S07H  C2002 09 09.35197 22 53 12.83 -20 35 26.6          20.5 R EU096644
     K06S07H HC2002 09 09.37280 22 53 11.16 -20 35 40.8          20.5 R EU096644
     K06S07H  C2002 09 09.39414 22 53 09.55 -20 35 54.6                 EU096644
     K06S07H  C2002 09 17.17220 22 43 23.79 -21 58 06.9          20.5 R EU096644
     K06S07H  C2002 09 17.20490 22 43 21.18 -21 58 25.6          20.9 R EU096644
     K06S07H  C2002 09 17.24126 22 43 18.15 -21 58 46.7          20.0 R EU096644
     K06S07H  C2002 10 09.11772 22 20 33.23 -23 49 44.8          20.8 R EU096644
     K06S07H  C2002 10 09.13906 22 20 32.32 -23 49 46.0                 EU096644
     K06S07H  C2002 10 09.16009 22 20 31.45 -23 49 46.3                 EU096644

Observer details:
644 Palomar Mountain/NEAT.  Observers R. Bambery, E. Helin, S. Pravdo,
    M. Hicks, K. Lawrence, R. Thicksten.  Measurer R. J. Bouma.  1.2-m Schmidt
    + CCD.

Orbital elements:
2006 SH7                                                 Earth MOID = 0.1420 AU
Epoch 2006 Sept. 22.0 TT = JDT 2454000.5                MPC
M 343.88059              (2000.0)            P               Q
n   0.25230239     Peri.  344.56478     +0.37661220     -0.92214762
a   2.4804005      Node    83.24638     +0.85907061     +0.31196862
e   0.5457530      Incl.    5.10462     +0.34664238     +0.22873422
P   3.91           H   19.8           G   0.15           U   2
Residuals in seconds of arc
020819 644  0.2-  0.6+    060919 682  0.9+  0.5+    061017 703  0.1-  0.1-
020819 644  0.1-  0.4+    060921 J95  0.3-  0.1+    061017 703  1.2-  1.3-
020909 644  0.3+  0.4-    060921 J95  0.4+  0.3+    061017 046  0.3+  0.2+
020909 644  0.4-  0.5-    060921 J95  0.2+  0.5-    061017 046  0.5+  0.9-
020909 644  0.2+  0.1+    060921 682  1.9+  1.2+    061017 046  0.3-  0.8-
020917 644  0.3+  1.2-    060921 682  0.4+  0.5+    061017 046  1.2-  0.0
020917 644  0.6+  0.8-    060921 682  1.1+  0.0     061017 046  0.6-  0.1+
020917 644  0.6-  0.7-    060921 198  0.0   0.1+    061017 046  0.4+  0.4-
021009 644  0.0   1.3+    060922 198  0.2-  0.0     061017 046  0.0   0.3-
021009 644  0.0   0.4+    060922 198  0.7-  0.5-    061020 H45  0.3+  0.1-
021009 644  0.4+  0.3+    060922 711  0.1+  0.2-    061020 H45  0.1-  0.1+
060918 703  0.8+  0.3+    060922 711  0.8-  0.4-    061020 H45  0.0   0.0
060918 703  0.3+  0.8+    060922 711  0.1+  0.6-    061020 H45  0.5+  0.2-
060918 703  0.9-  0.5+    060922 711  0.6-  0.3+    061020 H45  0.3+  0.2-
060918 703  1.4+  1.6+    060926 703  0.0   1.3+    061020 H45  0.1-  0.1-
060918 703  0.2+  1.2-    060926 703  0.1+  0.5-    061024 H45  0.2+  0.5+
060918 703  0.5-  0.1-    060926 703  0.6+  1.3+    061024 H45  0.0   0.3+
060918 703  0.8-  0.5+    060926 703  0.6-  0.3+    061024 H45  0.2-  0.0
060918 703  1.0-  0.4+    060930 291  0.1+  0.1+    061024 H45  0.1-  0.3-
060919 J95  1.6-  0.3+    060930 291  0.0   0.1+    061024 H45  0.2+  0.3+
060919 J95  0.2+  0.0     060930 291  0.1-  0.2+    061024 H45  0.3+  0.2+
060919 J95  1.0+  0.4-    061004 448  0.1-  0.1+    061024 H45  0.1+  0.2-
060919 H55  1.4-  0.9-    061004 448  0.3-  0.1-    061028 703  0.5+  0.1+
060919 H55  1.7-  1.3-    061004 448  0.4+  0.5-    061028 703  0.7+  0.6-
060919 H55 (2.4-  1.2-)   061013 649  0.1-  0.1-    061028 703  0.8-  0.8-
060919 703  0.1+  0.1-    061013 649  0.3+  0.0     061028 703  0.1+  0.1-
060919 734  0.4-  0.3-    061013 649  0.4+  0.0     061029 H45  0.1+  0.2+
060919 734  0.1-  0.9-    061017 046  0.5-  0.6+    061029 H45  0.3+  0.1+
060919 734  0.1+  1.4-    061017 046  0.2-  0.5+    061029 H45  0.2+  0.2+
060919 673  0.6+  0.0     061017 046  0.1-  0.7+    061029 H45  0.2+  0.2+
060919 703  0.4-  0.4-    061017 046  0.2-  0.1-    061030 H45  0.2-  0.1+
060919 682  0.9+  0.5+    061017 046  0.1-  0.1-    061030 H45  0.1-  0.1-
060919 673  0.1+  0.0     061017 046  0.0   0.6+    061030 H45  0.1+  0.0
060919 703  0.3-  0.6-    061017 448  0.2+  0.4+    061030 H45  0.1-  0.1+
060919 673  0.2+  0.2+    061017 448  0.4+  0.1-    061030 H45  0.1-  0.0
060919 673  0.1+  0.3+    061017 448  0.0   0.0     061030 H45  0.5-  0.0
060919 703  0.3+  0.5-    061017 703  0.1+  0.0
060919 682  1.0+  0.3+    061017 703  0.1+  0.1+

Ephemeris:
2006 SH7                 a,e,i = 2.48, 0.55, 5                   q = 1.1267
Date    TT    R. A. (2000) Decl.     Delta      r     Elong.  Phase     V
2006 11 01    04 56.67   +04 10.8    0.208    1.162   141.0    32.5    18.1
2006 11 11    05 42.02   +07 43.7    0.185    1.139   140.3    33.8    17.8
2006 11 21    06 28.61   +12 16.6    0.175    1.128   140.0    34.3    17.7
2006 12 01    07 10.89   +17 11.5    0.176    1.129   141.3    33.1    17.7
2006 12 11    07 44.26   +21 47.4    0.188    1.143   144.6    29.9    17.8
2006 12 21    08 06.46   +25 42.1    0.208    1.169   150.1    24.8    17.9
2006 12 31    08 18.31   +28 45.5    0.237    1.205   157.1    18.5    18.0
2007 01 10    08 22.66   +30 51.8    0.275    1.250   164.1    12.4    18.2
2007 01 20    08 22.81   +32 01.1    0.325    1.303   167.7     9.3    18.6
2007 01 30    08 22.15   +32 19.0    0.387    1.362   164.4    11.2    19.1
2007 02 09    08 22.93   +31 56.9    0.463    1.425   157.3    15.5    19.7
2007 02 19    08 26.12   +31 07.1    0.553    1.492   149.4    19.7    20.4
2007 03 01    08 31.98   +29 59.2    0.657    1.560   141.6    23.2    21.0
2007 03 11    08 40.19   +28 40.1    0.774    1.630   134.2    25.9    21.5
2007 03 21    08 50.29   +27 14.0    0.904    1.701   127.1    27.8    22.0

Timothy B. Spahr             (C) Copyright 2006 MPC           M.P.E.C. 2006-U96

Read MPEC 2006-U95 Read MPEC 2006-U97


Our Web policy. Index to the CBAT/MPC/ICQ pages.


Valid HTML 4.01!